Change the Weather History Date:

Wednesday, October 3, 2012

  Actual Average Record
Temperature  
Mean Temperature 79 °F 81 °F  
Max Temperature 85 °F 88 °F 92 °F (1967)
Min Temperature 72 °F 74 °F 65 °F (1894)
Degree Days  
Heating Degree Days 0 0  
Month to date heating degree days 0 0  
Since 1 July heating degree days 0 0  
Cooling Degree Days 14 16  
Month to date cooling degree days 40 48  
Year to date cooling degree days 3450 3527  
Growing Degree Days 28 (Base 50)    
Moisture  
Dew Point 67 °F    
Average Humidity 71    
Maximum Humidity 84    
Minimum Humidity 58    
Precipitation  
Precipitation T in 0.04 in 5.56 in (1989)
Month to date precipitation T 0.12  
Year to date precipitation 8.28 9.72  
Snow  
Snow 0.00 in - - ()
Month to date snowfall 0.0  
Since 1 July snowfall 0.0  
Since 1 September snowfall 0.0  
Snow Depth 0.00 in    
Sea Level Pressure  
Sea Level Pressure 29.99 in    
Wind  
Wind Speed 7 mph (ENE)    
Max Wind Speed 17 mph    
Max Gust Speed 22 mph    
Visibility 10 miles    
Events Rain    
T = Trace of Precipitation, MM = Missing Value Source: NWS Daily Summary

Daily Weather History Graph

Daily Weather History Graph

Search for Another Location

Airport or City:

Trip Planner

Search our weather history database for the weather conditions in past years. The results will help you decide how hot, cold, wet, or windy it might be!

Date:

Astronomy

Oct. 03, 2012 Rise Set
Actual Time 6:23 AM HST 6:16 PM HST
Civil Twilight 6:01 AM HST 6:39 PM HST
Nautical Twilight 5:35 AM HST 7:04 PM HST
Astronomical Twilight 5:09 AM HST 7:30 PM HST
Moon 8:48 PM HST (10/3) 9:27 AM HST (10/3)
Length of Visible Light 12h 37m
Length of Day
11h 53m
Waning Gibbous, 87% of the Moon is Illuminated
Oct 3
Waning Gibbous
Oct 7
Last Quarter
Oct 15
New
Oct 21
First Quarter
Oct 29
Full

Hourly Weather History & Observations

Time (HST) Temp. Heat Index Dew Point Humidity Pressure Visibility Wind Dir Wind Speed Gust Speed Precip Events Conditions
12:53 AM 75.9 °F - 66.9 °F 74% 29.98 in 10.0 mi Calm Calm - N/A   Partly Cloudy
1:53 AM 75.0 °F - 66.9 °F 76% 29.97 in 10.0 mi NNE 3.5 mph - N/A   Partly Cloudy
2:53 AM 73.9 °F - 68.0 °F 82% 29.96 in 10.0 mi Calm Calm - N/A   Clear
3:53 AM 75.0 °F - 66.9 °F 76% 29.96 in 10.0 mi NE 4.6 mph - N/A   Clear
4:53 AM 73.0 °F - 66.9 °F 81% 29.96 in 10.0 mi Calm Calm - N/A   Partly Cloudy
5:53 AM 73.0 °F - 66.9 °F 81% 29.98 in 10.0 mi NNW 3.5 mph - N/A   Partly Cloudy
6:53 AM 73.0 °F - 68.0 °F 84% 29.99 in 10.0 mi Calm Calm - N/A   Scattered Clouds
7:53 AM 75.9 °F - 66.9 °F 74% 30.01 in 10.0 mi North 4.6 mph - N/A   Scattered Clouds
8:53 AM 81.0 °F 83.3 °F 66.9 °F 62% 30.02 in 10.0 mi ENE 10.4 mph - N/A   Scattered Clouds
9:53 AM 82.0 °F 84.1 °F 66.0 °F 58% 30.02 in 10.0 mi Variable 4.6 mph - N/A   Scattered Clouds
10:53 AM 82.9 °F 86.5 °F 69.1 °F 63% 30.01 in 10.0 mi SE 10.4 mph - N/A   Scattered Clouds
11:53 AM 82.9 °F 86.5 °F 69.1 °F 63% 29.99 in 10.0 mi SE 12.7 mph - N/A   Scattered Clouds
12:53 PM 82.0 °F 85.5 °F 69.1 °F 65% 29.97 in 10.0 mi SSE 15.0 mph - N/A   Scattered Clouds
1:53 PM 84.0 °F 88.4 °F 70.0 °F 63% 29.95 in 10.0 mi SSE 13.8 mph - N/A   Scattered Clouds
2:53 PM 82.9 °F 85.0 °F 66.0 °F 56% 29.94 in 10.0 mi ENE 15.0 mph - N/A   Scattered Clouds
3:53 PM 81.0 °F 83.3 °F 66.9 °F 62% 29.95 in 10.0 mi ENE 5.8 mph - N/A   Mostly Cloudy
4:53 PM 79.0 °F - 66.9 °F 66% 29.96 in 10.0 mi NNE 6.9 mph - 0.00 in Rain Light Rain
5:53 PM 79.0 °F - 66.9 °F 66% 29.98 in 10.0 mi NNE 5.8 mph - 0.00 in   Mostly Cloudy
6:53 PM 78.1 °F - 66.9 °F 68% 30.00 in 10.0 mi Variable 3.5 mph - N/A   Mostly Cloudy
7:53 PM 78.1 °F - 66.0 °F 66% 30.02 in 10.0 mi ENE 3.5 mph - N/A   Scattered Clouds
8:53 PM 78.1 °F - 66.0 °F 66% 30.03 in 10.0 mi ENE 10.4 mph - N/A   Scattered Clouds
9:53 PM 78.1 °F - 66.0 °F 66% 30.05 in 10.0 mi NE 8.1 mph - N/A   Scattered Clouds
10:53 PM 78.1 °F - 66.0 °F 66% 30.03 in 10.0 mi ENE 6.9 mph - N/A   Scattered Clouds
11:53 PM 75.9 °F - 66.0 °F 71% 30.02 in 10.0 mi NE 6.9 mph - 0.00 in   Scattered Clouds